Wichita, KS

9:53 PM CST on February 26, 2017 (GMT -0600)
Col Jabara

Weather History for KAAO - November, 2012

Change the Weather History Date:

Tuesday, November 20, 2012

  Actual Average (KIAB) Record (KIAB)
Temperature  
Mean Temperature 54 °F -  
Max Temperature 69 °F 51 °F 73 °F (2007)
Min Temperature 39 °F 33 °F 21 °F (2001)
Degree Days  
Heating Degree Days 11    
Growing Degree Days 4 (Base 50)    
Moisture  
Dew Point 39 °F    
Average Humidity 64    
Maximum Humidity 89    
Minimum Humidity 32    
Precipitation  
Precipitation 0.00 in - - ()
Sea Level Pressure  
Sea Level Pressure 30.20 in    
Wind  
Wind Speed 8 mph (NW)    
Max Wind Speed 38 mph    
Max Gust Speed 100 mph    
Visibility 10 miles    
Events      
Averages and records for this station are not official NWS values.
T = Trace of Precipitation, MM = Missing Value Source: NWS Daily Summary

Daily Weather History Graph

Daily Weather History Graph

Search for Another Location

Airport or City:

Trip Planner

Search our weather history database for the weather conditions in past years. The results will help you decide how hot, cold, wet, or windy it might be!

Date:

Astronomy

Nov. 20, 2012 Rise Set
Actual Time 7:14 AM CST 5:14 PM CST
Civil Twilight 6:46 AM CST 5:42 PM CST
Nautical Twilight 6:14 AM CST 6:14 PM CST
Astronomical Twilight 5:43 AM CST 6:45 PM CST
Moon 12:53 PM CST (11/20) No Moon Set
Length of Visible Light 10h 55m
Length of Day
9h 59m
First Quarter, 51% of the Moon is Illuminated
Nov 20
First Quarter
Nov 28
Full
Dec 6
Last Quarter
Dec 13
New
Dec 19
First Quarter

Hourly Weather History & Observations

Time (CST) Temp. Windchill Dew Point Humidity Pressure Visibility Wind Dir Wind Speed Gust Speed Precip Events Conditions
12:54 AM 51.1 °F - 48.0 °F 89% 30.15 in 8.0 mi West 9.2 mph - N/A   Clear
1:54 AM 48.9 °F - 45.0 °F 86% 30.14 in 10.0 mi West 6.9 mph - N/A   Clear
2:54 AM 46.0 °F 43.1 °F 39.9 °F 79% 30.16 in 10.0 mi WNW 5.8 mph - N/A   Clear
3:54 AM 45.0 °F 41.8 °F 39.0 °F 80% 30.16 in 10.0 mi WNW 5.8 mph - N/A   Clear
4:54 AM 39.9 °F 35.8 °F 36.0 °F 86% 30.18 in 10.0 mi NNW 5.8 mph - N/A   Clear
5:54 AM 41.0 °F 38.0 °F 36.0 °F 82% 30.19 in 10.0 mi NNW 4.6 mph - N/A   Clear
6:54 AM 39.9 °F 28.6 °F 35.1 °F 83% 30.21 in 10.0 mi NW 28.8 mph 33.4 mph N/A   Squalls
7:07 AM 39.2 °F 26.1 °F 35.6 °F 87% 30.21 in 10.0 mi NNW 38.0 mph 100.1 mph N/A   Squalls
7:54 AM 41.0 °F 36.4 °F 36.0 °F 82% 30.24 in 10.0 mi NNW 6.9 mph - N/A   Clear
8:54 AM 46.9 °F - 39.9 °F 77% 30.25 in 10.0 mi North 6.9 mph - N/A   Clear
9:54 AM 53.1 °F - 42.1 °F 66% 30.26 in 10.0 mi NNE 6.9 mph - N/A   Clear
10:54 AM 59.0 °F - 41.0 °F 51% 30.25 in 10.0 mi North 3.5 mph - N/A   Clear
11:54 AM 63.0 °F - 41.0 °F 45% 30.22 in 10.0 mi Calm Calm - N/A   Clear
1:54 PM 66.9 °F - 37.9 °F 34% 30.19 in 10.0 mi North 3.5 mph - N/A   Clear
2:54 PM 69.1 °F - 37.9 °F 32% 30.18 in 10.0 mi NE 4.6 mph - N/A   Clear
3:54 PM 68.0 °F - 37.9 °F 33% 30.19 in 10.0 mi Calm Calm - N/A   Clear
4:54 PM 66.0 °F - 37.9 °F 36% 30.19 in 10.0 mi Calm Calm - N/A   Clear
5:54 PM 57.0 °F - 37.9 °F 49% 30.19 in 10.0 mi Calm Calm - N/A   Clear
6:54 PM 59.0 °F - 37.9 °F 46% 30.20 in 10.0 mi Calm Calm - N/A   Clear
7:54 PM 55.0 °F - 37.9 °F 53% 30.21 in 10.0 mi South 4.6 mph - N/A   Clear
8:54 PM 52.0 °F - 37.9 °F 59% 30.21 in 10.0 mi South 3.5 mph - N/A   Clear
9:54 PM 50.0 °F - 39.0 °F 66% 30.21 in 10.0 mi South 4.6 mph - N/A   Clear
10:54 PM 46.9 °F - 37.9 °F 71% 30.21 in 10.0 mi SE 4.6 mph - N/A   Clear
11:54 PM 46.9 °F - 37.9 °F 71% 30.20 in 10.0 mi South 4.6 mph - N/A   Clear